EW2348 Weather Reports


Display with metric or nautical units.
time (UTC)temp
F
wind
direction
speed
MPH
gust
MPH
rain 1hr
in
rain 24hr
in
rain mn
in
humidity
%
barometer
mb
20170530091027 64 148 2.0 4.0 0.00 0.01 0.00 93 1006.7
20170530090928 64 152 2.0 4.0 0.00 0.01 0.00 93 1006.7
20170530090727 64 153 2.0 4.0 0.00 0.01 0.00 93 1006.6
20170530090627 64 155 2.0 4.0 0.00 0.01 0.00 93 1006.6
20170530090527 64 151 3.0 4.0 0.00 0.01 0.00 93 1006.6
20170530090428 64 144 3.0 4.0 0.00 0.01 0.00 93 1006.6
20170530090227 64 139 1.0 4.0 0.00 0.01 0.00 92 1006.7
20170530090127 64 140 2.0 5.0 0.00 0.01 0.00 92 1006.6
20170530085927 64 142 3.0 5.0 0.00 0.01 0.00 92 1006.6
20170530085827 64 139 3.0 5.0 0.00 0.01 0.00 92 1006.6
20170530085727 64 136 2.0 5.0 0.00 0.01 0.00 92 1006.6
20170530085627 64 133 2.0 5.0 0.00 0.01 0.00 92 1006.5
20170530085527 64 129 2.0 5.0 0.00 0.01 0.00 92 1006.7
20170530085427 64 133 2.0 5.0 0.00 0.01 0.00 92 1006.6
20170530085127 64 140 1.0 5.0 0.00 0.01 0.00 92 1006.4
20170530084927 64 148 1.0 5.0 0.00 0.01 0.00 92 1006.2
20170530084827 64 153 1.0 5.0 0.00 0.01 0.00 92 1006.5
20170530084627 64 156 2.0 5.0 0.00 0.01 0.00 92 1006.5
20170530084527 64 158 1.0 5.0 0.00 0.01 0.00 91 1006.4
20170530084427 64 154 1.0 5.0 0.00 0.01 0.00 91 1006.3
20170530084327 64 154 1.0 5.0 0.00 0.01 0.00 91 1006.4
20170530084127 64 153 1.0 5.0 0.00 0.01 0.00 92 1006.2
20170530084027 64 148 2.0 5.0 0.00 0.01 0.00 92 1006.4
20170530083727 64 146 3.0 5.0 0.00 0.01 0.00 92 1006.2
20170530083527 65 146 2.0 4.0 0.00 0.01 0.00 91 1006.4
20170530083427 65 145 2.0 4.0 0.00 0.01 0.00 91 1006.0
20170530082827 65 134 2.0 5.0 0.00 0.01 0.00 90 1006.3
20170530082727 65 134 3.0 5.0 0.00 0.01 0.00 90 1006.1
20170530082627 65 138 2.0 5.0 0.00 0.01 0.00 90 1006.2
20170530082527 65 138 3.0 5.0 0.00 0.01 0.00 90 1006.3
20170530082427 65 140 3.0 5.0 0.00 0.01 0.00 90 1006.4
20170530082327 65 136 3.0 6.0 0.00 0.01 0.00 90 1006.3
20170530082227 65 132 3.0 6.0 0.00 0.01 0.00 90 1006.2
20170530082027 65 137 3.0 6.0 0.00 0.01 0.00 90 1006.1
20170530081927 65 136 3.0 6.0 0.00 0.01 0.00 90 1006.1
20170530081727 65 134 3.0 6.0 0.00 0.01 0.00 90 1006.1
20170530081627 65 134 3.0 6.0 0.00 0.01 0.00 89 1006.2
20170530081427 65 139 2.0 6.0 0.00 0.01 0.00 89 1006.0
20170530081327 65 145 3.0 6.0 0.00 0.01 0.00 89 1006.2
20170530081227 65 152 3.0 5.0 0.00 0.01 0.00 89 1006.0
20170530080927 65 168 4.0 5.0 0.00 0.01 0.00 89 1006.1
20170530080727 65 166 2.0 5.0 0.00 0.01 0.00 89 1005.8
20170530080527 65 158 2.0 5.0 0.00 0.01 0.00 89 1006.1
20170530080427 65 152 2.0 5.0 0.00 0.01 0.00 89 1006.0
20170530080327 65 148 2.0 5.0 0.00 0.01 0.00 89 1006.0
20170530080127 65 142 2.0 5.0 0.00 0.01 0.00 89 1006.0
20170530080027 65 136 2.0 5.0 0.00 0.01 0.00 89 1006.0
20170530075927 65 133 2.0 5.0 0.00 0.01 0.00 89 1006.1
20170530075827 65 136 2.0 5.0 0.00 0.01 0.00 89 1006.1
20170530075726 65 138 3.0 5.0 0.00 0.01 0.00 89 1006.1
20170530075628 65 132 2.0 5.0 0.00 0.01 0.00 89 1006.1
20170530075327 65 120 3.0 6.0 0.00 0.01 0.00 88 1006.0
20170530075227 65 123 3.0 6.0 0.00 0.01 0.00 88 1006.2
20170530075026 66 120 3.0 6.0 0.00 0.01 0.00 87 1006.0
20170530074927 66 120 3.0 7.0 0.00 0.01 0.00 87 1006.4
20170530074827 66 119 2.0 7.0 0.00 0.01 0.00 88 1006.1
20170530074727 66 123 3.0 7.0 0.00 0.01 0.00 88 1006.1
20170530074627 66 127 3.0 7.0 0.00 0.01 0.00 88 1005.9
20170530074526 66 135 4.0 7.0 0.00 0.01 0.00 87 1006.1
20170530074427 66 135 2.0 7.0 0.00 0.01 0.00 87 1006.0
20170530074327 66 131 3.0 7.0 0.00 0.01 0.00 87 1006.1
20170530074227 66 125 3.0 7.0 0.00 0.01 0.00 86 1006.3
20170530073827 66 140 3.0 7.0 0.00 0.01 0.00 87 1006.1
20170530073727 66 138 4.0 7.0 0.00 0.01 0.00 87 1006.2
20170530073627 66 144 3.0 7.0 0.00 0.01 0.00 87 1006.1
20170530073227 66 150 5.0 7.0 0.00 0.01 0.00 87 1006.1
20170530073127 66 136 3.0 5.0 0.00 0.01 0.00 87 1006.2
20170530073027 66 129 3.0 5.0 0.00 0.01 0.00 87 1006.1
20170530072827 66 128 3.0 7.0 0.00 0.01 0.00 87 1006.1
20170530072727 66 127 3.0 7.0 0.00 0.01 0.00 87 1006.0
20170530072627 66 122 2.0 7.0 0.00 0.01 0.00 87 1006.2
20170530072527 66 124 3.0 7.0 0.00 0.01 0.00 86 1006.0
20170530072427 66 124 3.0 7.0 0.00 0.01 0.00 86 1006.0
20170530072327 66 124 4.0 7.0 0.00 0.01 0.00 86 1006.2
20170530072227 66 122 2.0 7.0 0.00 0.01 0.00 86 1006.1
20170530072128 66 125 4.0 7.0 0.00 0.01 0.00 86 1006.2
20170530072027 66 127 5.0 7.0 0.00 0.01 0.00 86 1006.0
20170530071727 66 127 5.0 7.0 0.00 0.01 0.00 88 1006.0
20170530071627 66 128 3.0 5.0 0.00 0.01 0.00 87 1006.2
20170530071527 66 128 3.0 5.0 0.00 0.01 0.00 87 1006.1
20170530071327 66 130 3.0 5.0 0.00 0.01 0.00 88 1006.2
20170530071227 66 136 2.0 5.0 0.00 0.01 0.00 88 1006.2
20170530071027 66 133 2.0 5.0 0.00 0.01 0.00 88 1006.2
20170530070928 66 132 2.0 5.0 0.00 0.01 0.00 88 1006.3
20170530070827 66 134 2.0 5.0 0.00 0.01 0.00 88 1006.1
20170530070727 66 132 3.0 5.0 0.00 0.01 0.00 88 1006.3
20170530070627 66 126 1.0 4.0 0.00 0.01 0.00 88 1006.2
20170530070527 66 135 3.0 6.0 0.00 0.01 0.00 88 1006.0
20170530070027 66 135 1.0 6.0 0.00 0.01 0.00 87 1006.3
20170530065726 66 141 3.0 6.0 0.00 0.01 0.00 86 1006.3
20170530065527 66 137 1.0 7.0 0.00 0.01 0.00 87 1006.0
20170530065427 66 132 1.0 7.0 0.00 0.01 0.00 86 1006.1
20170530065327 66 128 2.0 7.0 0.00 0.01 0.00 86 1006.0
20170530065227 67 121 3.0 7.0 0.00 0.01 0.00 86 1006.1
20170530065127 66 114 4.0 7.0 0.00 0.01 0.00 86 1005.9
20170530065027 66 117 3.0 7.0 0.00 0.01 0.00 86 1006.1
20170530064827 66 112 2.0 7.0 0.00 0.01 0.00 86 1005.8
20170530064727 66 109 3.0 7.0 0.00 0.01 0.00 86 1005.9
20170530064626 66 114 5.0 7.0 0.00 0.01 0.00 86 1005.9
20170530064527 66 111 2.0 7.0 0.00 0.01 0.00 86 1005.9
20170530064427 66 118 3.0 7.0 0.00 0.01 0.00 87 1005.8
20170530064327 66 117 3.0 7.0 0.00 0.01 0.00 87 1005.8
20170530064127 66 121 2.0 7.0 0.00 0.01 0.00 87 1005.9
20170530064026 66 117 3.0 7.0 0.00 0.01 0.00 87 1005.8
20170530063927 66 117 2.0 7.0 0.00 0.01 0.00 87 1005.8
20170530063727 66 114 5.0 7.0 0.00 0.01 0.00 87 1005.8
20170530063627 66 111 3.0 7.0 0.00 0.01 0.00 87 1005.8
20170530063527 66 110 3.0 7.0 0.00 0.01 0.00 87 1005.9
20170530063427 66 102 5.0 7.0 0.00 0.01 0.00 88 1005.6
20170530063227 66 93 2.0 6.0 0.00 0.01 0.00 87 1005.9
20170530062927 66 86 1.0 6.0 0.00 0.01 0.00 87 1005.9
20170530062727 66 80 1.0 6.0 0.00 0.01 0.00 86 1005.7
20170530062527 66 90 2.0 6.0 0.00 0.01 0.00 86 1005.8
20170530062427 66 93 1.0 6.0 0.00 0.01 0.00 86 1005.8
20170530062227 66 105 4.0 6.0 0.00 0.01 0.00 86 1006.1
20170530062127 66 100 3.0 6.0 0.00 0.01 0.00 86 1005.9
20170530062027 66 97 3.0 6.0 0.00 0.01 0.00 86 1005.8
20170530061927 66 109 2.0 6.0 0.00 0.01 0.00 86 1005.9
20170530061827 66 117 2.0 6.0 0.00 0.01 0.00 86 1005.7
20170530061726 66 121 3.0 6.0 0.00 0.01 0.00 86 1005.9
20170530061627 66 120 1.0 6.0 0.00 0.01 0.00 85 1006.0
20170530061527 66 129 3.0 6.0 0.00 0.01 0.00 85 1006.0
20170530061427 66 140 3.0 6.0 0.00 0.01 0.00 85 1005.9
20170530061327 66 145 2.0 6.0 0.00 0.01 0.00 85 1006.0
20170530061227 66 154 3.0 6.0 0.00 0.01 0.00 85 1006.1
20170530061027 66 172 2.0 5.0 0.00 0.01 0.00 85 1006.0
20170530060927 66 176 2.0 5.0 0.00 0.01 0.00 85 1005.9
20170530060827 66 181 1.0 5.0 0.00 0.01 0.00 85 1005.9
20170530060427 66 164 3.0 5.0 0.00 0.01 0.00 84 1005.9
20170530060327 66 156 3.0 5.0 0.00 0.01 0.00 84 1005.8
20170530060227 66 149 3.0 5.0 0.00 0.01 0.00 84 1006.0
20170530055927 66 130 2.0 5.0 0.00 0.01 0.00 84 1006.0
20170530055627 66 111 1.0 5.0 0.00 0.01 0.00 84 1006.0
20170530055527 67 108 1.0 5.0 0.00 0.01 0.00 84 1005.9
20170530055427 66 115 3.0 5.0 0.00 0.01 0.00 84 1005.9
20170530054927 67 94 4.0 5.0 0.00 0.01 0.00 84 1005.8
20170530054827 67 95 1.0 5.0 0.00 0.01 0.00 84 1005.9
20170530054727 67 101 2.0 5.0 0.00 0.01 0.00 84 1005.8
20170530054527 66 107 2.0 5.0 0.00 0.01 0.00 83 1005.8
20170530054427 66 95 1.0 5.0 0.00 0.01 0.00 83 1006.0
20170530054227 67 98 3.0 5.0 0.00 0.01 0.00 83 1006.1
20170530054027 67 92 3.0 6.0 0.00 0.01 0.00 82 1006.0
20170530053627 67 100 3.0 7.0 0.00 0.01 0.00 81 1006.0
20170530053327 67 105 3.0 7.0 0.00 0.01 0.00 80 1006.1
20170530053227 67 105 3.0 7.0 0.00 0.01 0.00 80 1005.9
20170530052927 67 106 2.0 8.0 0.00 0.01 0.00 80 1006.1
20170530052827 67 105 5.0 8.0 0.00 0.01 0.00 80 1005.9
20170530052527 67 98 2.0 8.0 0.00 0.01 0.00 79 1006.0
20170530052427 67 99 3.0 8.0 0.00 0.01 0.00 79 1005.8
20170530052327 68 101 3.0 8.0 0.00 0.01 0.00 79 1005.9
20170530052227 68 95 3.0 8.0 0.00 0.01 0.00 79 1005.8
20170530052026 67 101 3.0 6.0 0.00 0.01 0.00 79 1005.9
20170530051926 67 101 3.0 6.0 0.00 0.01 0.00 79 1006.0
20170530051827 67 101 4.0 6.0 0.00 0.01 0.00 79 1006.0
20170530051727 67 105 3.0 6.0 0.00 0.01 0.00 79 1006.1
20170530051427 67 110 1.0 6.0 0.00 0.01 0.00 78 1006.0
20170530051226 67 115 3.0 7.0 0.00 0.01 0.00 78 1006.0
20170530051127 68 118 4.0 7.0 0.00 0.01 0.00 78 1006.1
20170530050927 67 106 2.0 7.0 0.00 0.01 0.00 78 1006.1
20170530050727 68 118 2.0 7.0 0.00 0.01 0.00 78 1005.9
20170530050627 67 105 3.0 7.0 0.00 0.01 0.00 78 1006.1
20170530050527 68 101 3.0 7.0 0.00 0.01 0.00 78 1006.0
20170530050327 67 108 2.0 6.0 0.00 0.01 0.00 78 1005.9
20170530045827 68 92 3.0 7.0 0.00 0.01 0.00 77 1006.0
20170530045727 68 90 3.0 7.0 0.00 0.01 0.00 77 1006.0
20170530045627 68 94 4.0 7.0 0.00 0.01 0.00 77 1005.9
20170530045427 68 84 4.0 7.0 0.00 0.01 0.00 77 1005.9
20170530045326 67 85 3.0 7.0 0.00 0.01 0.00 77 1006.1
20170530045227 67 88 2.0 6.0 0.00 0.01 0.00 77 1006.0
20170530045127 67 89 3.0 6.0 0.00 0.01 0.00 77 1006.0
20170530044927 68 91 3.0 6.0 0.00 0.01 0.00 77 1006.1
20170530044726 67 94 3.0 6.0 0.00 0.01 0.00 77 1006.0
20170530044627 68 87 2.0 6.0 0.00 0.01 0.00 77 1006.1
20170530044427 68 83 2.0 7.0 0.00 0.01 0.00 77 1006.0
20170530044327 68 79 4.0 7.0 0.00 0.01 0.00 77 1006.1
20170530044227 68 78 2.0 7.0 0.00 0.01 0.00 76 1005.9
20170530044127 68 84 2.0 7.0 0.00 0.01 0.00 76 1006.0
20170530043526 68 99 2.0 5.0 0.00 0.01 0.00 76 1005.7
20170530043327 68 112 3.0 7.0 0.00 0.01 0.00 75 1006.0
20170530043127 68 104 2.0 7.0 0.00 0.01 0.00 75 1005.9
20170530043027 68 102 2.0 7.0 0.00 0.01 0.00 75 1005.7
20170530042927 68 104 1.0 7.0 0.00 0.01 0.00 74 1005.8
20170530042627 68 118 2.0 7.0 0.00 0.01 0.00 74 1005.6
20170530042527 68 118 1.0 7.0 0.00 0.01 0.00 74 1005.9
20170530042327 68 121 3.0 7.0 0.00 0.01 0.00 74 1005.8
20170530042126 68 127 2.0 7.0 0.00 0.01 0.00 74 1005.7
20170530042027 68 131 3.0 7.0 0.00 0.01 0.00 74 1005.8
20170530041827 68 123 3.0 9.0 0.00 0.01 0.00 74 1005.8
20170530041727 68 117 3.0 9.0 0.00 0.01 0.00 74 1005.8
20170530041627 68 114 2.0 9.0 0.00 0.01 0.00 74 1005.9
20170530041527 68 114 3.0 9.0 0.00 0.01 0.00 74 1005.7
20170530041427 68 109 4.0 9.0 0.00 0.01 0.00 74 1005.9
20170530041327 68 102 2.0 9.0 0.00 0.01 0.00 74 1005.8
20170530041127 68 94 2.0 9.0 0.00 0.01 0.00 74 1005.8
20170530041026 68 90 4.0 9.0 0.00 0.01 0.00 74 1005.9
20170530040927 68 87 6.0 9.0 0.00 0.01 0.00 74 1005.7
20170530040727 68 96 1.0 4.0 0.00 0.01 0.00 74 1005.8
20170530040627 68 95 1.0 5.0 0.00 0.01 0.00 74 1005.8
20170530040527 68 96 1.0 5.0 0.00 0.01 0.00 74 1005.7
20170530040426 68 96 1.0 5.0 0.00 0.01 0.00 74 1005.7
20170530040327 68 96 1.0 5.0 0.00 0.01 0.00 74 1005.9
20170530035926 68 101 2.0 5.0 0.00 0.01 0.01 73 1005.8
20170530035727 69 91 1.0 5.0 0.00 0.02 0.01 73 1005.9
20170530035627 69 85 0.0 4.0 0.00 0.02 0.01 73 1005.7
20170530035227 69 74 2.0 5.0 0.00 0.02 0.01 73 1005.7
20170530035027 69 68 2.0 5.0 0.00 0.04 0.01 73 1005.8
20170530034927 69 67 2.0 5.0 0.00 0.05 0.01 73 1005.7
20170530034826 69 71 2.0 5.0 0.00 0.06 0.01 73 1005.8
20170530034727 69 69 2.0 5.0 0.00 0.06 0.01 73 1005.7
20170530034627 69 69 1.0 5.0 0.00 0.07 0.01 73 1005.7
20170530034527 69 74 1.0 5.0 0.00 0.08 0.01 73 1005.7
20170530034427 69 75 3.0 5.0 0.00 0.12 0.01 73 1005.8
20170530034227 69 74 2.0 5.0 0.00 0.15 0.01 73 1005.7
20170530034126 69 78 3.0 5.0 0.00 0.17 0.01 73 1005.8
20170530033827 69 79 1.0 5.0 0.00 0.19 0.01 72 1005.7
20170530033727 69 79 1.0 5.0 0.00 0.19 0.01 72 1005.5
20170530033626 69 81 2.0 5.0 0.00 0.20 0.01 72 1005.7
20170530033527 69 77 2.0 5.0 0.00 0.20 0.01 72 1005.6
20170530033427 69 77 2.0 5.0 0.00 0.21 0.01 72 1005.7
20170530033227 69 78 3.0 5.0 0.00 0.25 0.01 72 1005.7
20170530033127 69 78 3.0 5.0 0.00 0.25 0.01 72 1005.7
20170530032926 69 83 2.0 5.0 0.00 0.25 0.01 72 1005.7
20170530032826 69 77 2.0 5.0 0.00 0.26 0.01 72 1005.6
20170530032527 69 74 3.0 5.0 0.00 0.27 0.01 72 1005.7
20170530032327 70 72 2.0 5.0 0.00 0.27 0.01 72 1005.6
20170530032027 69 72 1.0 5.0 0.00 0.30 0.01 72 1005.6
20170530031927 70 75 3.0 5.0 0.00 0.31 0.01 72 1005.6
20170530031827 69 80 1.0 5.0 0.00 0.32 0.01 72 1005.8
20170530031727 69 74 3.0 5.0 0.00 0.33 0.01 72 1005.8
20170530031627 70 74 1.0 5.0 0.00 0.33 0.01 72 1005.9
20170530031527 70 77 3.0 5.0 0.00 0.33 0.01 72 1005.7
20170530031427 70 77 3.0 5.0 0.00 0.33 0.01 72 1005.8
20170530031227 69 80 1.0 5.0 0.00 0.34 0.01 72 1005.8
20170530030927 69 80 2.0 5.0 0.00 0.34 0.01 72 1005.8
20170530030827 69 79 3.0 5.0 0.00 0.34 0.01 72 1005.8
20170530030526 69 93 1.0 4.0 0.00 0.34 0.01 72 1005.8
20170530030426 69 97 1.0 4.0 0.00 0.34 0.01 72 1005.8
20170530030127 70 95 2.0 5.0 0.00 0.34 0.01 72 1005.8
20170530030027 69 98 1.0 5.0 0.00 0.34 0.01 71 1005.9
20170530025826 70 111 0.0 5.0 0.00 0.34 0.01 70 1005.8
20170530025727 70 107 1.0 5.0 0.00 0.34 0.01 71 1005.9
20170530025527 70 99 3.0 5.0 0.00 0.34 0.01 69 1005.8
20170530025427 70 94 1.0 5.0 0.00 0.34 0.01 69 1005.8
20170530025327 70 94 1.0 5.0 0.00 0.34 0.01 69 1005.8
20170530025226 70 89 1.0 5.0 0.00 0.34 0.01 69 1005.8
20170530025126 70 90 1.0 5.0 0.00 0.34 0.01 69 1005.9
20170530025027 70 79 3.0 5.0 0.00 0.34 0.01 69 1005.9
20170530024927 70 79 2.0 6.0 0.00 0.34 0.01 69 1005.8
20170530024626 70 89 1.0 6.0 0.00 0.34 0.01 68 1005.7
20170530024527 71 97 1.0 6.0 0.00 0.34 0.01 68 1005.9
20170530024427 71 95 2.0 6.0 0.00 0.34 0.01 68 1005.8
20170530024327 71 93 1.0 6.0 0.00 0.34 0.01 68 1005.7
20170530023927 70 94 3.0 5.0 0.00 0.34 0.01 68 1005.7
20170530023827 71 94 1.0 5.0 0.00 0.34 0.01 68 1005.6
20170530023727 71 86 1.0 5.0 0.00 0.34 0.01 68 1005.7
20170530023527 71 79 2.0 5.0 0.00 0.34 0.01 68 1005.7
20170530023426 71 80 2.0 5.0 0.00 0.34 0.01 68 1005.9
20170530023327 71 83 3.0 5.0 0.00 0.34 0.01 69 1005.9
20170530023227 71 84 2.0 5.0 0.00 0.34 0.01 69 1005.8
20170530023127 70 85 1.0 3.0 0.00 0.34 0.01 68 1005.9
20170530022927 71 82 1.0 3.0 0.00 0.34 0.01 68 1005.8
20170530022826 71 87 2.0 5.0 0.00 0.34 0.01 68 1006.0
20170530022727 71 96 1.0 5.0 0.00 0.34 0.01 68 1005.8
20170530022627 71 96 1.0 5.0 0.00 0.34 0.01 68 1005.8
20170530022427 71 102 1.0 5.0 0.00 0.34 0.01 67 1005.7
20170530022326 71 98 1.0 5.0 0.00 0.34 0.01 67 1005.7
20170530021727 71 92 1.0 4.0 0.00 0.34 0.01 67 1005.7
20170530021626 71 83 1.0 4.0 0.00 0.34 0.01 67 1005.7
20170530021427 71 56 0.0 4.0 0.00 0.34 0.01 66 1005.6
20170530021227 71 35 1.0 4.0 0.00 0.34 0.01 66 1005.7
20170530021126 71 24 2.0 4.0 0.00 0.34 0.01 65 1005.8
20170530020827 71 7 2.0 4.0 0.00 0.34 0.01 65 1005.7
20170530020727 71 8 1.0 4.0 0.00 0.34 0.01 65 1005.4
20170530020526 71 31 1.0 5.0 0.00 0.34 0.01 65 1005.6
20170530020227 71 90 1.0 5.0 0.00 0.34 0.01 65 1005.7
20170530020127 71 105 1.0 5.0 0.00 0.34 0.01 65 1005.7
20170530015926 71 116 2.0 5.0 0.00 0.34 0.01 65 1005.4
20170530015826 71 108 1.0 5.0 0.00 0.34 0.01 65 1005.5
20170530015727 72 108 1.0 5.0 0.00 0.34 0.01 64 1005.5
20170530015627 71 107 3.0 5.0 0.00 0.34 0.01 65 1005.5
20170530015527 72 101 2.0 3.0 0.00 0.34 0.01 63 1005.5
20170530015327 71 94 1.0 3.0 0.00 0.34 0.01 64 1005.5
20170530015226 72 92 2.0 3.0 0.00 0.34 0.01 63 1005.4
20170530015027 72 87 1.0 3.0 0.00 0.34 0.01 63 1005.5
20170530014927 72 90 1.0 3.0 0.00 0.34 0.01 63 1005.4
20170530014827 72 87 1.0 3.0 0.00 0.34 0.01 63 1005.5
20170530014726 72 87 1.0 3.0 0.00 0.34 0.01 63 1005.3
20170530014527 72 87 1.0 3.0 0.00 0.34 0.01 62 1005.3
20170530014427 72 87 1.0 3.0 0.00 0.34 0.01 62 1005.5
20170530014326 72 84 1.0 3.0 0.00 0.34 0.01 62 1005.3
20170530014228 72 81 0.0 2.0 0.00 0.34 0.01 62 1005.3
20170530014127 72 87 1.0 2.0 0.00 0.34 0.01 62 1005.4
20170530013827 72 92 1.0 3.0 0.00 0.34 0.01 62 1005.4
20170530013726 72 92 0.0 3.0 0.00 0.34 0.01 61 1005.3
20170530013427 72 92 1.0 3.0 0.00 0.34 0.01 61 1005.3
20170530013327 72 95 0.0 3.0 0.00 0.34 0.01 61 1005.4
20170530013226 72 96 1.0 3.0 0.00 0.34 0.01 60 1005.3
20170530013126 73 90 0.0 3.0 0.00 0.34 0.01 60 1005.2
20170530013027 73 90 1.0 3.0 0.00 0.34 0.01 59 1005.4
20170530012927 73 90 1.0 3.0 0.00 0.34 0.01 59 1005.3
20170530012827 73 90 1.0 4.0 0.00 0.34 0.01 59 1005.3
20170530012727 73 90 0.0 4.0 0.00 0.34 0.01 58 1005.3
20170530012526 73 90 1.0 4.0 0.00 0.34 0.01 58 1005.5
20170530012427 73 94 1.0 4.0 0.00 0.34 0.01 57 1005.3
20170530012327 73 94 1.0 4.0 0.00 0.34 0.01 57 1005.1
20170530012126 73 90 1.0 4.0 0.00 0.34 0.01 57 1005.3
20170530012026 73 90 1.0 4.0 0.00 0.34 0.01 57 1005.3
20170530011927 74 89 1.0 4.0 0.00 0.34 0.01 56 1005.3
20170530011827 73 88 2.0 4.0 0.00 0.34 0.01 56 1005.2
20170530011727 74 87 1.0 4.0 0.00 0.34 0.01 56 1005.3
20170530011526 73 80 2.0 4.0 0.00 0.34 0.01 56 1005.1
20170530011427 74 75 1.0 4.0 0.00 0.34 0.01 55 1005.3
20170530011327 74 76 1.0 4.0 0.00 0.34 0.01 55 1005.2
20170530011227 74 76 2.0 4.0 0.00 0.34 0.01 55 1005.2
20170530011027 74 71 1.0 4.0 0.00 0.34 0.01 55 1005.2
20170530010926 74 74 1.0 4.0 0.00 0.34 0.01 55 1005.2
20170530010827 74 75 1.0 4.0 0.00 0.34 0.01 55 1005.1
20170530010727 74 73 1.0 4.0 0.00 0.34 0.01 55 1005.1
20170530010627 74 70 1.0 4.0 0.00 0.34 0.01 54 1005.2
20170530010526 74 69 3.0 4.0 0.00 0.34 0.01 54 1004.9
20170530010426 74 70 2.0 4.0 0.00 0.34 0.01 54 1005.1
20170530010327 74 70 2.0 4.0 0.00 0.34 0.01 53 1005.2
20170530010228 74 71 2.0 5.0 0.00 0.34 0.01 53 1004.9
20170530010127 74 74 1.0 5.0 0.00 0.34 0.01 52 1005.1
20170530010027 74 82 2.0 5.0 0.00 0.34 0.01 52 1005.2
20170530005926 74 85 1.0 5.0 0.00 0.34 0.01 51 1004.9
20170530005727 74 87 2.0 5.0 0.00 0.34 0.01 51 1005.0
20170530005627 74 90 1.0 5.0 0.00 0.34 0.01 50 1005.0
20170530005426 75 93 1.0 5.0 0.00 0.34 0.01 50 1005.1
20170530005326 75 93 1.0 5.0 0.00 0.34 0.01 49 1005.1
20170530005127 74 93 1.0 4.0 0.00 0.34 0.01 49 1005.2
20170530004929 75 86 1.0 4.0 0.00 0.34 0.01 48 1005.2
20170530004827 75 82 1.0 4.0 0.00 0.34 0.01 48 1005.2
20170530004727 75 83 1.0 4.0 0.00 0.34 0.01 48 1005.3
20170530004627 75 84 1.0 4.0 0.00 0.34 0.01 48 1005.1
20170530004527 75 87 1.0 4.0 0.00 0.34 0.01 48 1005.1
20170530004426 75 87 2.0 4.0 0.00 0.34 0.01 48 1005.2
20170530004326 75 87 1.0 3.0 0.00 0.34 0.01 48 1005.3
20170530004127 75 82 1.0 3.0 0.00 0.34 0.01 48 1005.3
20170530004027 75 79 1.0 3.0 0.00 0.34 0.01 48 1005.3
20170530003927 75 81 1.0 3.0 0.00 0.34 0.01 48 1005.1
20170530003626 75 80 2.0 3.0 0.00 0.34 0.01 48 1005.1
20170530003327 75 84 2.0 3.0 0.00 0.34 0.01 47 1004.9
20170530003227 75 87 1.0 3.0 0.00 0.34 0.01 47 1005.3
20170530003027 76 90 2.0 3.0 0.00 0.34 0.01 47 1005.1
20170530002827 76 97 1.0 4.0 0.00 0.34 0.01 47 1005.0
20170530002726 75 109 2.0 4.0 0.00 0.34 0.01 47 1004.9
20170530002626 75 112 0.0 4.0 0.00 0.34 0.01 47 1005.0
20170530002526 75 112 1.0 4.0 0.00 0.34 0.01 47 1005.2
20170530002427 76 125 1.0 4.0 0.00 0.34 0.01 46 1005.0
20170530002327 76 127 1.0 4.0 0.00 0.34 0.01 47 1004.9
20170530002226 76 128 1.0 4.0 0.00 0.34 0.01 46 1005.1
20170530001927 76 141 2.0 4.0 0.00 0.34 0.01 46 1004.8
20170530001626 76 129 2.0 4.0 0.00 0.34 0.01 46 1005.0
20170530001527 76 135 1.0 4.0 0.00 0.34 0.01 46 1004.7
20170530001327 76 122 2.0 3.0 0.00 0.34 0.01 46 1004.8
20170530001227 77 126 1.0 3.0 0.00 0.34 0.01 46 1004.6
20170530001126 77 122 1.0 3.0 0.00 0.34 0.01 46 1004.8
20170530001026 77 124 1.0 3.0 0.00 0.34 0.01 46 1005.1
20170530000927 76 128 1.0 3.0 0.00 0.34 0.01 46 1004.7
20170530000627 78 142 1.0 3.0 0.00 0.34 0.01 44 1004.8
20170530000526 78 142 1.0 3.0 0.00 0.34 0.01 44 1004.7
20170530000327 78 131 1.0 4.0 0.00 0.34 0.01 44 1005.0
20170530000227 78 132 1.0 4.0 0.00 0.34 0.01 44 1004.9
20170530000127 78 133 1.0 4.0 0.00 0.34 0.01 44 1004.8
20170530000026 78 131 1.0 4.0 0.00 0.34 0.01 44 1004.8
20170529235927 78 124 1.0 4.0 0.00 0.34 0.01 44 1004.8
20170529235827 78 113 2.0 4.0 0.00 0.34 0.01 44 1004.8
20170529235526 77 116 1.0 4.0 0.00 0.34 0.01 44 1004.8
20170529235327 78 129 3.0 4.0 0.00 0.34 0.01 44 1004.9
20170529235227 78 124 1.0 3.0 0.00 0.34 0.01 43 1005.0
20170529234827 79 129 1.0 3.0 0.00 0.34 0.01 42 1005.0
20170529234727 79 123 2.0 3.0 0.00 0.34 0.01 42 1004.8
20170529234626 79 115 1.0 3.0 0.00 0.34 0.01 42 1004.7
20170529234526 78 116 1.0 5.0 0.00 0.34 0.01 43 1004.8
20170529234429 78 117 1.0 5.0 0.00 0.34 0.01 43 1004.7
20170529234126 78 127 1.0 6.0 0.00 0.34 0.01 43 1004.9
20170529234026 78 123 1.0 6.0 0.00 0.34 0.01 43 1004.6
20170529233926 78 118 1.0 6.0 0.00 0.34 0.01 43 1004.8
20170529233728 78 125 2.0 9.0 0.00 0.34 0.01 43 1004.9
20170529233627 78 129 3.0 9.0 0.00 0.34 0.01 43 1004.9
20170529233427 78 133 1.0 9.0 0.00 0.34 0.01 41 1004.8
20170529233226 78 137 4.0 9.0 0.00 0.34 0.01 41 1004.8
20170529233127 78 141 3.0 9.0 0.00 0.34 0.01 40 1004.8
20170529232826 78 153 5.0 9.0 0.00 0.34 0.01 40 1004.6
20170529232726 79 155 5.0 9.0 0.00 0.34 0.01 40 1004.8
20170529232126 80 138 4.0 9.0 0.00 0.34 0.01 39 1004.6
20170529232026 79 137 3.0 9.0 0.00 0.34 0.01 42 1004.8
20170529231627 80 134 7.0 9.0 0.00 0.34 0.01 40 1004.7
20170529231526 80 125 4.0 7.0 0.00 0.34 0.01 42 1004.9
20170529231426 80 133 1.0 7.0 0.00 0.34 0.01 41 1004.7
20170529231227 80 142 3.0 9.0 0.00 0.34 0.01 42 1004.7
20170529231127 79 150 2.0 9.0 0.00 0.34 0.01 42 1004.9
20170529231026 79 155 3.0 9.0 0.00 0.34 0.01 42 1004.7
20170529230826 79 143 3.0 9.0 0.00 0.34 0.01 39 1004.7
20170529230627 79 144 3.0 9.0 0.00 0.34 0.01 41 1004.7
20170529230527 79 145 2.0 9.0 0.00 0.34 0.01 39 1004.7
20170529230427 79 147 2.0 9.0 0.00 0.34 0.01 40 1004.6
20170529230127 80 140 5.0 12.0 0.00 0.34 0.01 37 1004.6
20170529230027 80 133 5.0 12.0 0.00 0.34 0.01 38 1004.5
20170529225427 80 133 5.0 12.0 0.00 0.34 0.01 37 1004.5
20170529225226 80 134 5.0 12.0 0.00 0.34 0.01 36 1004.7
20170529224927 80 139 5.0 11.0 0.00 0.34 0.01 36 1004.7
20170529224827 80 136 4.0 11.0 0.00 0.34 0.01 36 1004.5
20170529224627 80 133 5.0 11.0 0.00 0.34 0.01 35 1004.5
20170529224526 80 120 7.0 11.0 0.00 0.34 0.01 37 1004.6
20170529224426 80 118 5.0 11.0 0.00 0.34 0.01 37 1004.7
20170529224327 80 113 6.0 11.0 0.00 0.34 0.01 36 1004.7
20170529224227 81 109 6.0 11.0 0.00 0.34 0.01 36 1004.4
20170529224127 81 115 3.0 11.0 0.00 0.34 0.01 36 1004.5
20170529223926 80 110 5.0 11.0 0.00 0.34 0.01 35 1004.5
20170529223826 81 110 5.0 11.0 0.00 0.34 0.01 34 1004.7
20170529223727 81 108 4.0 11.0 0.00 0.34 0.01 35 1004.7
20170529223627 80 112 4.0 11.0 0.00 0.34 0.01 35 1004.7
20170529223527 81 122 3.0 8.0 0.00 0.34 0.01 37 1004.6
20170529223426 80 125 4.0 8.0 0.00 0.34 0.01 38 1004.6
20170529223027 81 124 3.0 8.0 0.00 0.34 0.01 37 1004.6
20170529222826 81 136 4.0 9.0 0.00 0.34 0.01 37 1004.6
20170529222726 82 143 3.0 9.0 0.00 0.34 0.01 38 1004.6
20170529222626 82 150 3.0 9.0 0.00 0.34 0.01 39 1004.8
20170529222527 82 150 2.0 9.0 0.00 0.34 0.01 39 1004.7
20170529222427 81 150 3.0 9.0 0.00 0.34 0.01 36 1004.7
20170529222327 81 157 5.0 9.0 0.00 0.34 0.01 38 1004.5
20170529222126 81 160 4.0 11.0 0.00 0.34 0.01 34 1004.6
20170529222026 81 160 5.0 11.0 0.00 0.34 0.01 35 1004.5
20170529221927 81 159 8.0 11.0 0.00 0.34 0.01 33 1004.5
20170529221827 81 153 5.0 11.0 0.00 0.34 0.01 35 1004.7
20170529221727 81 142 3.0 11.0 0.00 0.34 0.01 34 1004.6
20170529221626 81 130 6.0 11.0 0.00 0.34 0.01 35 1004.6
20170529221526 81 118 5.0 11.0 0.00 0.34 0.01 35 1004.7
20170529221427 81 111 5.0 11.0 0.00 0.34 0.01 37 1004.6
20170529221327 80 103 4.0 11.0 0.00 0.34 0.01 39 1004.6
20170529221127 81 94 4.0 11.0 0.00 0.34 0.01 35 1004.6
20170529221026 81 90 5.0 11.0 0.00 0.34 0.01 34 1004.6
20170529220927 81 92 5.0 11.0 0.00 0.34 0.01 35 1004.7
20170529220727 81 97 5.0 9.0 0.00 0.34 0.01 37 1004.7
20170529220327 81 104 5.0 9.0 0.00 0.34 0.01 37 1004.7
20170529220227 81 103 5.0 10.0 0.00 0.34 0.01 37 1004.6
20170529220127 81 100 5.0 10.0 0.00 0.34 0.01 37 1004.9
20170529220026 81 95 5.0 12.0 0.00 0.34 0.01 37 1004.6
20170529215729 81 90 5.0 12.0 0.00 0.34 0.01 36 1004.7
20170529215626 81 97 6.0 12.0 0.00 0.34 0.01 35 1004.8
20170529215526 81 89 6.0 12.0 0.00 0.34 0.01 35 1004.9
20170529215426 81 87 3.0 12.0 0.00 0.34 0.01 34 1004.9
20170529215327 81 97 6.0 12.0 0.00 0.34 0.01 37 1004.7
20170529215226 81 113 5.0 12.0 0.00 0.34 0.01 36 1005.0
20170529215026 81 150 7.0 12.0 0.00 0.34 0.01 36 1005.0
20170529214926 82 161 9.0 12.0 0.00 0.34 0.01 39 1004.9
20170529214727 82 152 3.0 12.0 0.00 0.34 0.01 39 1004.8
20170529214526 81 146 5.0 12.0 0.00 0.34 0.01 38 1004.9
20170529214426 81 146 5.0 12.0 0.00 0.34 0.01 36 1004.8
20170529214227 80 132 7.0 12.0 0.00 0.34 0.01 37 1004.7
20170529213826 80 115 7.0 9.0 0.00 0.34 0.01 38 1004.8
20170529213726 80 123 5.0 9.0 0.00 0.34 0.01 39 1004.8
20170529213627 80 135 4.0 9.0 0.00 0.34 0.01 37 1004.8
20170529213427 80 142 4.0 9.0 0.00 0.34 0.01 40 1004.9
20170529213326 80 145 3.0 9.0 0.00 0.34 0.01 37 1004.7
20170529213227 81 140 4.0 9.0 0.00 0.34 0.01 39 1004.9
20170529213127 81 144 5.0 9.0 0.00 0.34 0.01 36 1004.9
20170529213027 81 146 5.0 9.0 0.00 0.34 0.01 39 1004.9
20170529212926 81 142 5.0 11.0 0.00 0.34 0.01 39 1004.8
20170529212827 81 140 7.0 11.0 0.00 0.34 0.01 38 1004.9
20170529212527 81 137 7.0 11.0 0.00 0.34 0.01 36 1004.8
20170529212427 81 136 5.0 11.0 0.00 0.34 0.01 38 1005.0
20170529212327 81 136 4.0 11.0 0.00 0.34 0.01 39 1005.0
20170529212227 80 134 5.0 11.0 0.00 0.34 0.01 38 1004.8
20170529212127 81 135 7.0 11.0 0.00 0.34 0.01 38 1004.9
20170529211926 80 133 7.0 11.0 0.00 0.34 0.01 38 1005.0
20170529211526 81 122 5.0 12.0 0.00 0.34 0.01 38 1005.1
20170529211426 80 127 7.0 12.0 0.00 0.34 0.01 40 1005.2
20170529211326 81 127 7.0 12.0 0.00 0.34 0.01 38 1005.2
20170529211227 81 135 6.0 12.0 0.00 0.34 0.01 39 1005.0
20170529210826 81 134 3.0 12.0 0.00 0.34 0.01 40 1005.0
20170529210626 80 149 7.0 12.0 0.00 0.34 0.01 42 1005.1
20170529210427 80 133 4.0 12.0 0.00 0.34 0.01 40 1005.0
20170529210327 80 134 5.0 12.0 0.00 0.34 0.01 42 1005.3
20170529210026 81 139 3.0 11.0 0.00 0.34 0.01 40 1005.2
20170529205727 81 130 7.0 12.0 0.00 0.34 0.01 38 1005.3
20170529205627 82 127 5.0 12.0 0.00 0.34 0.01 41 1005.2
20170529205526 82 129 5.0 12.0 0.00 0.34 0.01 43 1005.1
20170529205426 82 139 3.0 12.0 0.00 0.34 0.01 41 1005.4
20170529205326 81 136 3.0 12.0 0.00 0.34 0.01 41 1005.3
20170529205227 81 132 4.0 12.0 0.00 0.34 0.01 41 1005.2
20170529205127 81 132 4.0 12.0 0.00 0.34 0.01 39 1005.2
20170529204926 81 133 7.0 16.0 0.00 0.34 0.01 41 1005.4
20170529204726 81 139 7.0 16.0 0.00 0.34 0.01 41 1005.3
20170529204527 81 134 5.0 16.0 0.00 0.34 0.01 38 1005.1
20170529204326 81 139 5.0 16.0 0.00 0.34 0.01 39 1005.2
20170529203927 81 143 5.0 15.0 0.00 0.34 0.01 41 1005.5
20170529203727 80 152 5.0 15.0 0.00 0.34 0.01 39 1005.2
20170529203626 81 154 7.0 15.0 0.00 0.34 0.01 41 1005.3
20170529203427 80 156 5.0 15.0 0.00 0.34 0.01 41 1005.4
20170529203227 81 153 12.0 15.0 0.00 0.34 0.01 41 1005.5
20170529203127 81 155 6.0 11.0 0.00 0.34 0.01 41 1005.3
20170529203026 81 152 5.0 11.0 0.00 0.34 0.01 41 1005.4
20170529202826 80 137 5.0 11.0 0.00 0.34 0.01 41 1005.3
20170529202627 80 133 9.0 11.0 0.00 0.34 0.01 42 1005.6
20170529202527 80 130 7.0 11.0 0.00 0.34 0.01 41 1005.5
20170529202426 80 129 6.0 11.0 0.00 0.34 0.01 42 1005.2
20170529202326 81 133 6.0 11.0 0.00 0.34 0.01 42 1005.5
20170529202227 80 123 6.0 11.0 0.00 0.34 0.01 43 1005.3
20170529202127 80 124 5.0 11.0 0.00 0.34 0.01 42 1005.3
20170529202027 81 127 7.0 13.0 0.00 0.34 0.01 41 1005.5
20170529201926 80 139 4.0 13.0 0.00 0.34 0.01 43 1005.5
20170529201826 80 147 7.0 13.0 0.00 0.34 0.01 46 1005.4
20170529201726 80 142 4.0 13.0 0.00 0.34 0.01 43 1005.5
20170529201627 79 127 2.0 13.0 0.00 0.34 0.01 43 1005.5
20170529201527 78 117 2.0 13.0 0.00 0.34 0.01 45 1005.5
20170529201426 78 111 2.0 13.0 0.00 0.34 0.01 45 1005.5
20170529201027 80 94 10.0 13.0 0.00 0.34 0.01 43 1005.4
20170529200927 80 90 5.0 9.0 0.00 0.34 0.01 44 1005.6
20170529200826 81 90 5.0 9.0 0.00 0.34 0.01 41 1005.6
20170529200726 80 99 6.0 13.0 0.00 0.34 0.01 41 1005.6
20170529200626 80 106 6.0 13.0 0.00 0.34 0.01 41 1005.6
20170529200527 80 109 6.0 13.0 0.00 0.34 0.01 41 1005.7
20170529200427 80 112 6.0 13.0 0.00 0.34 0.01 41 1005.6
20170529200327 80 117 6.0 13.0 0.00 0.34 0.01 41 1005.4
20170529200126 80 128 6.0 13.0 0.00 0.34 0.01 41 1005.7
20170529195827 81 133 5.0 13.0 0.00 0.34 0.01 40 1005.7
20170529195726 81 129 6.0 13.0 0.00 0.34 0.01 39 1005.6
20170529195626 82 123 5.0 12.0 0.00 0.34 0.01 42 1005.5
20170529195526 81 125 5.0 12.0 0.00 0.34 0.01 41 1005.5
20170529195327 81 123 5.0 12.0 0.00 0.34 0.01 41 1005.6
20170529195227 81 117 5.0 12.0 0.00 0.34 0.01 41 1005.5
20170529195126 80 113 7.0 12.0 0.00 0.34 0.01 39 1005.7
20170529195026 80 124 7.0 12.0 0.00 0.34 0.01 41 1005.5
20170529194926 82 121 9.0 12.0 0.00 0.34 0.01 43 1005.4
20170529194827 82 113 3.0 9.0 0.00 0.34 0.01 43 1005.5
20170529194627 81 117 5.0 9.0 0.00 0.34 0.01 41 1005.6
20170529194526 81 119 6.0 9.0 0.00 0.34 0.01 41 1005.5
20170529194427 81 129 4.0 8.0 0.00 0.34 0.01 41 1005.7
20170529194327 81 132 6.0 8.0 0.00 0.34 0.01 41 1005.6
20170529193727 79 129 3.0 11.0 0.00 0.34 0.01 46 1005.7
20170529193426 81 114 3.0 12.0 0.00 0.34 0.01 43 1005.7
20170529193327 81 111 3.0 12.0 0.00 0.34 0.01 41 1005.8
20170529193227 80 116 5.0 12.0 0.00 0.34 0.01 42 1005.7
20170529193026 81 120 7.0 12.0 0.00 0.34 0.01 43 1005.7
20170529192826 81 127 3.0 12.0 0.00 0.34 0.01 43 1005.7
20170529192727 80 132 5.0 12.0 0.00 0.34 0.01 43 1005.5
20170529192626 80 139 6.0 12.0 0.00 0.34 0.01 43 1005.6
20170529192526 80 137 9.0 15.0 0.00 0.34 0.01 42 1005.6
20170529192326 80 132 7.0 15.0 0.00 0.34 0.01 43 1005.9
20170529192227 81 126 7.0 15.0 0.00 0.34 0.01 45 1005.6
20170529191926 81 127 4.0 15.0 0.00 0.34 0.01 42 1005.6
20170529191826 81 126 4.0 15.0 0.00 0.34 0.01 41 1005.6
20170529191726 81 127 5.0 15.0 0.00 0.34 0.01 41 1005.7
20170529191426 81 141 6.0 13.0 0.00 0.34 0.01 43 1005.6
20170529191326 81 146 5.0 13.0 0.00 0.34 0.01 42 1005.9
20170529191126 80 157 7.0 13.0 0.00 0.34 0.01 42 1005.8
20170529191027 80 161 9.0 13.0 0.00 0.34 0.01 44 1005.9
20170529190927 80 162 7.0 11.0 0.00 0.34 0.01 43 1005.9
20170529190726 80 148 5.0 11.0 0.00 0.34 0.01 44 1005.8
20170529190626 80 146 5.0 12.0 0.00 0.34 0.01 45 1005.6
20170529190527 81 141 4.0 12.0 0.00 0.34 0.01 44 1005.6
20170529190427 80 146 4.0 12.0 0.00 0.34 0.01 43 1005.7
20170529190326 80 145 3.0 12.0 0.00 0.34 0.01 42 1005.9
20170529190226 80 138 6.0 12.0 0.00 0.34 0.01 44 1005.9
20170529190126 80 131 4.0 12.0 0.00 0.34 0.01 43 1005.8
20170529190027 80 121 4.0 12.0 0.00 0.34 0.01 43 1005.7
20170529185927 80 116 7.0 12.0 0.00 0.34 0.01 47 1005.7
20170529185827 80 120 5.0 12.0 0.00 0.34 0.01 44 1005.9
20170529185626 80 120 5.0 14.0 0.00 0.34 0.01 42 1005.8
20170529185327 80 102 5.0 14.0 0.00 0.34 0.01 44 1005.8
20170529185227 80 103 7.0 14.0 0.00 0.34 0.01 44 1005.9
20170529185126 80 114 5.0 14.0 0.00 0.34 0.01 46 1005.8
20170529185026 80 116 6.0 17.0 0.00 0.34 0.01 45 1005.9
20170529184926 80 122 3.0 17.0 0.00 0.34 0.01 43 1005.8
20170529184827 80 117 4.0 17.0 0.00 0.34 0.01 42 1005.9
20170529184727 79 111 5.0 17.0 0.00 0.34 0.01 42 1005.9
20170529184626 79 112 10.0 17.0 0.00 0.34 0.01 42 1006.0
20170529184326 80 109 7.0 17.0 0.00 0.34 0.01 43 1006.0
20170529184227 80 113 7.0 17.0 0.00 0.34 0.01 42 1005.9
20170529184026 80 111 9.0 16.0 0.00 0.34 0.01 44 1005.7
20170529183926 81 112 6.0 15.0 0.00 0.34 0.01 45 1005.9
20170529183627 79 123 5.0 15.0 0.00 0.34 0.01 43 1005.9
20170529183527 80 131 8.0 15.0 0.00 0.34 0.01 45 1006.0
20170529183427 79 131 5.0 15.0 0.00 0.34 0.01 45 1006.2
20170529183126 79 145 5.0 14.0 0.00 0.34 0.01 43 1006.0
20170529183027 80 144 10.0 14.0 0.00 0.34 0.01 44 1006.0
20170529182927 80 144 9.0 14.0 0.00 0.34 0.01 46 1006.1
20170529182826 80 142 5.0 14.0 0.00 0.34 0.01 45 1006.3
20170529182726 80 136 6.0 14.0 0.00 0.34 0.01 44 1006.1
20170529182526 80 130 6.0 14.0 0.00 0.34 0.01 47 1006.2
20170529182427 80 136 10.0 14.0 0.00 0.34 0.01 45 1006.0
20170529182327 80 133 9.0 13.0 0.00 0.34 0.01 45 1006.3
20170529182226 80 133 7.0 13.0 0.00 0.34 0.01 45 1006.1
20170529182026 80 130 5.0 13.0 0.00 0.34 0.01 44 1006.0
20170529181927 80 133 6.0 13.0 0.00 0.34 0.01 48 1006.0
20170529181827 79 129 3.0 13.0 0.00 0.34 0.01 45 1006.1
20170529181727 79 132 5.0 13.0 0.00 0.34 0.01 44 1006.1
20170529181626 79 137 7.0 13.0 0.00 0.34 0.01 45 1006.1
20170529181526 80 136 9.0 13.0 0.00 0.34 0.01 46 1006.3
20170529181227 79 130 7.0 13.0 0.00 0.34 0.01 45 1006.1
20170529181127 79 137 7.0 13.0 0.00 0.34 0.01 45 1006.2
20170529180926 79 128 5.0 11.0 0.00 0.34 0.01 44 1006.1
20170529180827 79 133 6.0 9.0 0.00 0.34 0.01 45 1006.1
20170529180726 80 129 3.0 12.0 0.00 0.34 0.01 51 1006.0
20170529180426 80 131 3.0 14.0 0.00 0.34 0.01 51 1005.8
20170529180227 80 128 3.0 14.0 0.00 0.34 0.01 51 1006.2
20170529180127 80 124 3.0 14.0 0.00 0.34 0.01 51 1005.9
20170529180026 80 123 3.0 14.0 0.00 0.34 0.01 51 1006.0
20170529175926 78 118 3.0 14.0 0.00 0.34 0.01 48 1005.9
20170529175827 78 115 4.0 14.0 0.00 0.34 0.01 48 1006.0
20170529175727 78 122 8.0 14.0 0.00 0.34 0.01 49 1006.0
20170529175626 78 114 5.0 12.0 0.00 0.34 0.01 50 1006.2
20170529175427 78 124 7.0 12.0 0.00 0.34 0.01 50 1006.0
20170529175027 79 124 5.0 11.0 0.00 0.34 0.01 50 1005.9
20170529174926 78 130 4.0 12.0 0.00 0.34 0.01 48 1005.9
20170529174726 78 130 8.0 12.0 0.00 0.34 0.01 50 1005.9
20170529174627 78 131 5.0 12.0 0.00 0.34 0.01 48 1006.1
20170529174426 79 131 5.0 12.0 0.00 0.34 0.01 50 1005.8
20170529174126 78 137 4.0 12.0 0.00 0.34 0.01 48 1006.0
20170529174027 79 138 8.0 12.0 0.00 0.34 0.01 48 1005.8
20170529173927 80 130 7.0 11.0 0.00 0.34 0.01 50 1006.0
20170529173826 80 123 4.0 11.0 0.00 0.34 0.01 49 1006.0
20170529173526 80 122 7.0 11.0 0.00 0.34 0.01 55 1005.9
20170529173427 80 123 5.0 12.0 0.00 0.34 0.01 54 1006.0
20170529173126 78 120 4.0 12.0 0.00 0.34 0.01 51 1006.0
20170529172926 78 113 8.0 12.0 0.00 0.34 0.01 52 1006.1
20170529172827 77 123 6.0 12.0 0.00 0.34 0.01 53 1005.8
20170529172727 77 123 5.0 12.0 0.00 0.34 0.01 53 1006.3
20170529172526 78 135 5.0 12.0 0.00 0.34 0.01 52 1005.9
20170529172426 78 131 6.0 11.0 0.00 0.34 0.01 50 1006.1
20170529172226 79 128 5.0 11.0 0.00 0.34 0.01 52 1006.1
20170529172127 79 137 5.0 11.0 0.00 0.34 0.01 53 1006.0
20170529172027 78 151 6.0 11.0 0.00 0.34 0.01 53 1006.1
20170529171926 79 157 5.0 11.0 0.00 0.34 0.01 54 1006.1
20170529171826 79 160 4.0 11.0 0.00 0.34 0.01 53 1006.0
20170529171527 79 138 3.0 11.0 0.00 0.34 0.01 52 1006.1
20170529171326 78 136 3.0 13.0 0.00 0.34 0.01 54 1006.1
20170529171026 78 138 3.0 15.0 0.00 0.34 0.01 60 1006.1
20170529170927 78 135 3.0 15.0 0.00 0.34 0.01 55 1006.0
20170529170826 77 130 5.0 15.0 0.00 0.34 0.01 55 1006.3
20170529170526 76 135 6.0 15.0 0.00 0.34 0.01 54 1006.1
20170529170426 76 142 7.0 15.0 0.00 0.34 0.01 51 1006.1
20170529170127 76 129 5.0 15.0 0.00 0.34 0.01 50 1006.2
20170529170027 78 135 9.0 13.0 0.00 0.34 0.01 56 1006.1
20170529165926 78 139 7.0 12.0 0.00 0.34 0.01 60 1006.2
20170529165627 78 138 8.0 12.0 0.00 0.34 0.01 60 1006.1
20170529165326 78 141 3.0 12.0 0.00 0.34 0.01 59 1006.1
20170529165226 77 146 2.0 12.0 0.00 0.34 0.01 56 1006.1
20170529165126 77 145 7.0 12.0 0.00 0.34 0.01 57 1005.9
20170529164726 76 149 7.0 11.0 0.00 0.34 0.01 59 1005.9
20170529164526 77 146 5.0 13.0 0.00 0.34 0.01 59 1006.0
20170529164426 78 148 8.0 13.0 0.00 0.34 0.01 57 1006.1
20170529164327 78 144 7.0 13.0 0.00 0.34 0.01 58 1006.0
20170529164226 78 139 7.0 13.0 0.00 0.34 0.01 61 1006.2
20170529164126 78 144 5.0 13.0 0.00 0.34 0.01 61 1006.2
20170529164026 77 152 5.0 13.0 0.00 0.34 0.01 59 1006.0
20170529163926 76 156 6.0 13.0 0.00 0.34 0.01 58 1006.1
20170529163827 76 156 6.0 13.0 0.00 0.34 0.01 59 1006.1
20170529163626 77 166 5.0 13.0 0.00 0.34 0.01 61 1006.0
20170529163426 77 169 5.0 11.0 0.00 0.34 0.01 61 1006.1
20170529163326 76 167 5.0 11.0 0.00 0.34 0.01 59 1005.9
20170529163127 76 183 7.0 11.0 0.00 0.34 0.01 59 1006.3
20170529162826 77 164 4.0 10.0 0.00 0.34 0.01 60 1006.3
20170529162726 77 166 5.0 10.0 0.00 0.34 0.01 60 1006.1
20170529162326 77 166 3.0 10.0 0.00 0.34 0.01 59 1006.1
20170529162226 77 158 4.0 10.0 0.00 0.34 0.01 56 1006.0
20170529162026 77 157 7.0 10.0 0.00 0.34 0.01 63 1006.0
20170529161927 76 152 4.0 9.0 0.00 0.34 0.01 61 1006.1
20170529161626 77 141 3.0 10.0 0.00 0.34 0.01 64 1006.0
20170529161526 76 135 6.0 10.0 0.00 0.34 0.01 62 1006.0
20170529161427 76 131 7.0 10.0 0.00 0.34 0.01 62 1006.1
20170529161327 76 130 4.0 10.0 0.00 0.34 0.01 64 1006.2
20170529161227 77 128 5.0 10.0 0.00 0.34 0.01 64 1006.0
20170529161126 77 122 5.0 10.0 0.00 0.34 0.01 65 1006.1
20170529161026 76 112 5.0 10.0 0.00 0.34 0.01 64 1006.2
20170529160927 76 107 6.0 10.0 0.00 0.34 0.01 65 1006.0
20170529160827 77 99 5.0 10.0 0.00 0.34 0.01 66 1006.0
20170529160726 76 90 3.0 5.0 0.00 0.34 0.01 68 1006.1
20170529160626 76 94 3.0 5.0 0.00 0.34 0.01 68 1006.0
20170529160526 76 89 3.0 9.0 0.00 0.34 0.01 68 1005.9
20170529160326 76 92 3.0 9.0 0.00 0.34 0.01 68 1006.0
20170529160227 76 97 3.0 9.0 0.00 0.34 0.01 68 1006.0
20170529160126 76 98 3.0 9.0 0.00 0.34 0.01 68 1006.0
20170529155727 76 117 3.0 9.0 0.00 0.34 0.01 68 1005.9
20170529155526 76 123 5.0 9.0 0.00 0.34 0.01 67 1006.3
20170529155426 75 124 4.0 7.0 0.00 0.34 0.01 67 1005.9
20170529155326 76 123 5.0 7.0 0.00 0.34 0.01 67 1005.9
20170529155127 75 142 3.0 11.0 0.00 0.34 0.01 67 1006.0
20170529155026 75 142 5.0 11.0 0.00 0.34 0.01 67 1006.2
20170529154727 76 151 3.0 11.0 0.00 0.34 0.01 70 1005.9
20170529154526 75 152 3.0 11.0 0.00 0.34 0.01 70 1006.0
20170529154326 74 154 5.0 11.0 0.00 0.34 0.01 70 1006.0
20170529154227 75 144 5.0 11.0 0.00 0.34 0.01 70 1006.0
20170529154127 76 136 7.0 11.0 0.00 0.34 0.01 70 1006.0
20170529153926 75 141 3.0 9.0 0.00 0.34 0.01 70 1005.8
20170529153826 75 141 5.0 9.0 0.00 0.34 0.01 72 1005.9
20170529153627 75 138 3.0 9.0 0.00 0.34 0.01 72 1005.6
20170529153426 74 129 5.0 9.0 0.00 0.34 0.01 72 1005.8
20170529153326 74 125 5.0 9.0 0.00 0.34 0.01 73 1005.8
20170529153226 75 126 3.0 9.0 0.00 0.34 0.01 71 1005.8
20170529153127 75 120 6.0 9.0 0.00 0.34 0.01 70 1005.8
20170529152926 76 118 3.0 8.0 0.00 0.34 0.01 72 1005.6
20170529152826 74 111 4.0 8.0 0.00 0.34 0.01 72 1005.8
20170529152726 74 111 5.0 8.0 0.00 0.34 0.01 75 1005.7
20170529152527 74 113 3.0 8.0 0.00 0.34 0.01 75 1005.7
20170529152426 74 122 3.0 8.0 0.00 0.34 0.01 75 1005.6
20170529152326 74 124 2.0 8.0 0.00 0.34 0.01 75 1005.7
20170529152226 74 133 3.0 8.0 0.00 0.34 0.01 76 1005.7
20170529152126 74 137 3.0 8.0 0.00 0.34 0.01 75 1005.8
20170529152026 75 130 5.0 8.0 0.00 0.34 0.01 76 1005.7
20170529151927 74 125 3.0 8.0 0.00 0.34 0.01 76 1005.7
20170529151727 75 124 2.0 8.0 0.00 0.34 0.01 78 1005.7
20170529151626 74 121 3.0 8.0 0.00 0.34 0.01 78 1005.6
20170529151526 74 126 3.0 8.0 0.00 0.34 0.01 78 1005.7
20170529151426 74 121 3.0 8.0 0.00 0.34 0.01 77 1005.6
20170529151226 73 116 5.0 8.0 0.00 0.34 0.01 76 1005.7
20170529151126 74 113 5.0 7.0 0.00 0.34 0.01 77 1005.7
20170529150826 74 130 3.0 7.0 0.00 0.34 0.01 80 1005.5
20170529150727 74 131 3.0 8.0 0.00 0.34 0.01 78 1005.6
20170529150626 73 129 3.0 8.0 0.00 0.34 0.01 80 1005.7
20170529150526 74 123 3.0 8.0 0.00 0.34 0.01 79 1005.4
20170529150327 73 121 2.0 8.0 0.00 0.34 0.01 80 1005.5
20170529150226 72 118 3.0 8.0 0.00 0.34 0.01 80 1005.6
20170529150027 73 124 5.0 8.0 0.00 0.34 0.01 79 1005.4
20170529145826 72 130 4.0 8.0 0.00 0.34 0.01 79 1005.6
20170529145726 74 137 6.0 8.0 0.00 0.34 0.01 80 1005.7
20170529145626 73 154 4.0 7.0 0.00 0.34 0.01 79 1005.7
20170529145527 73 160 2.0 7.0 0.00 0.34 0.01 78 1005.6
20170529145326 73 167 4.0 7.0 0.00 0.34 0.01 78 1005.6
20170529145226 73 167 4.0 7.0 0.00 0.34 0.01 76 1005.7
20170529145126 73 165 4.0 7.0 0.00 0.34 0.01 78 1005.7
20170529144826 74 139 1.0 8.0 0.00 0.34 0.01 80 1005.8
20170529144726 73 140 1.0 8.0 0.00 0.34 0.01 77 1005.7
20170529144626 72 143 4.0 8.0 0.00 0.34 0.01 77 1005.8
20170529144526 73 140 3.0 8.0 0.00 0.34 0.01 80 1005.6
20170529144426 73 139 1.0 8.0 0.00 0.34 0.01 82 1005.6
20170529144326 73 132 2.0 8.0 0.00 0.34 0.01 82 1005.5
20170529144227 74 139 4.0 8.0 0.00 0.34 0.01 83 1005.6
20170529144026 72 136 4.0 8.0 0.00 0.34 0.01 81 1005.5
20170529143826 72 123 5.0 8.0 0.00 0.34 0.01 81 1005.5
20170529143726 72 114 5.0 7.0 0.00 0.34 0.01 81 1005.6
20170529143527 73 110 3.0 7.0 0.00 0.34 0.01 81 1005.6
20170529143326 73 112 3.0 7.0 0.00 0.34 0.01 82 1005.8
20170529143226 74 105 3.0 7.0 0.00 0.34 0.01 83 1005.4
20170529143026 72 108 2.0 7.0 0.00 0.34 0.01 81 1005.5
20170529142927 72 108 5.0 8.0 0.00 0.34 0.01 82 1005.7
20170529142826 72 101 5.0 11.0 0.00 0.34 0.01 82 1005.4
20170529142726 72 98 5.0 11.0 0.00 0.34 0.01 82 1005.4
20170529142427 72 88 3.0 11.0 0.00 0.34 0.01 82 1005.2
20170529142226 72 85 2.0 11.0 0.00 0.34 0.01 82 1005.2
20170529142126 72 85 5.0 11.0 0.00 0.34 0.01 82 1005.2
20170529141727 72 85 2.0 7.0 0.00 0.34 0.01 82 1005.5
20170529141526 72 97 3.0 7.0 0.00 0.34 0.01 82 1005.3
20170529141426 73 106 3.0 7.0 0.00 0.34 0.01 82 1005.6
20170529141326 72 112 1.0 7.0 0.00 0.34 0.01 82 1005.5
20170529141227 72 120 2.0 7.0 0.00 0.34 0.01 83 1005.5
20170529140826 72 128 3.0 7.0 0.00 0.34 0.01 84 1005.3
20170529140727 71 127 5.0 7.0 0.00 0.34 0.01 85 1005.3
20170529140526 71 118 5.0 8.0 0.00 0.34 0.01 85 1005.2
20170529140426 71 118 5.0 9.0 0.00 0.34 0.01 85 1005.2
20170529140227 71 124 5.0 9.0 0.00 0.34 0.01 85 1005.3
20170529140026 71 119 5.0 9.0 0.00 0.34 0.01 85 1005.6
20170529135926 71 116 3.0 9.0 0.00 0.34 0.01 85 1005.4
20170529135826 70 118 2.0 9.0 0.00 0.34 0.01 85 1005.3
20170529135727 71 119 4.0 9.0 0.00 0.34 0.01 85 1005.5
20170529135626 70 121 3.0 9.0 0.00 0.34 0.01 85 1005.4
20170529135526 70 123 5.0 9.0 0.00 0.34 0.01 86 1005.5
20170529135326 70 115 4.0 7.0 0.00 0.34 0.01 86 1005.5
20170529135127 70 101 2.0 7.0 0.00 0.34 0.01 85 1005.4
20170529135026 70 100 3.0 7.0 0.00 0.34 0.01 85 1005.4
20170529134926 70 104 5.0 7.0 0.00 0.34 0.01 86 1005.3
20170529134627 70 116 3.0 7.0 0.00 0.34 0.01 86 1005.4
20170529134426 70 121 3.0 7.0 0.00 0.34 0.01 87 1005.4
20170529134326 71 131 3.0 7.0 0.00 0.34 0.01 86 1005.3
20170529134226 70 124 1.0 7.0 0.00 0.34 0.01 87 1005.3
20170529133927 70 141 4.0 6.0 0.00 0.34 0.01 88 1005.3
20170529133826 70 142 3.0 6.0 0.00 0.34 0.01 88 1005.1
20170529133726 70 139 3.0 6.0 0.00 0.34 0.01 88 1005.2
20170529133626 70 126 1.0 6.0 0.00 0.34 0.01 90 1005.3
20170529133426 70 123 2.0 7.0 0.00 0.34 0.01 89 1005.3
20170529133026 69 117 3.0 8.0 0.00 0.34 0.01 91 1005.1
20170529132726 69 122 1.0 8.0 0.00 0.34 0.01 91 1005.2
20170529132626 69 126 2.0 8.0 0.00 0.34 0.01 90 1005.3
20170529132426 69 112 5.0 8.0 0.00 0.34 0.01 92 1005.2
20170529132327 69 105 3.0 7.0 0.00 0.34 0.01 92 1005.1
20170529131926 68 111 4.0 7.0 0.00 0.34 0.01 93 1005.3
20170529131826 69 114 5.0 7.0 0.00 0.34 0.01 94 1004.9
20170529131727 69 117 5.0 7.0 0.00 0.34 0.01 94 1005.3
20170529131426 68 122 5.0 7.0 0.00 0.34 0.01 94 1005.4
20170529131226 68 122 5.0 7.0 0.00 0.34 0.01 95 1005.4
20170529131127 69 123 3.0 6.0 0.00 0.34 0.01 95 1005.5
20170529130926 68 120 3.0 6.0 0.00 0.34 0.01 96 1005.3
20170529130726 68 123 2.0 6.0 0.00 0.34 0.01 97 1005.3
20170529130627 68 128 3.0 6.0 0.00 0.34 0.01 97 1005.3
20170529130526 68 138 3.0 6.0 0.00 0.34 0.01 98 1005.3
20170529130426 68 146 3.0 7.0 0.00 0.34 0.01 98 1005.4
20170529130326 68 155 3.0 7.0 0.00 0.34 0.01 99 1005.3
20170529130226 67 160 4.0 7.0 0.00 0.34 0.01 99 1005.4
20170529130026 67 167 5.0 7.0 0.00 0.34 0.01 99 1005.2
20170529125926 67 169 4.0 7.0 0.00 0.34 0.01 99 1005.2
20170529125826 67 166 4.0 7.0 0.00 0.34 0.01 99 1005.6
20170529125726 67 161 3.0 8.0 0.00 0.34 0.01 99 1005.4
20170529125626 67 159 2.0 8.0 0.00 0.34 0.01 99 1005.5
20170529125527 66 155 3.0 8.0 0.00 0.34 0.01 99 1005.3
20170529125326 67 150 3.0 8.0 0.00 0.34 0.01 99 1005.2
20170529125226 66 148 5.0 8.0 0.00 0.34 0.01 99 1005.3
20170529125027 66 142 4.0 8.0 0.00 0.34 0.01 99 1005.3
20170529124926 66 139 4.0 8.0 0.00 0.34 0.01 99 1005.4
20170529124726 66 137 5.0 8.0 0.00 0.34 0.01 99 1005.3
20170529124526 66 127 6.0 8.0 0.00 0.34 0.01 99 1005.5
20170529124427 66 125 3.0 7.0 0.00 0.34 0.01 99 1005.1
20170529124326 66 118 5.0 7.0 0.00 0.34 0.01 99 1005.5
20170529124226 66 105 4.0 7.0 0.00 0.34 0.01 99 1005.4
20170529124126 66 110 3.0 5.0 0.00 0.34 0.01 99 1005.3
20170529123927 66 110 1.0 5.0 0.00 0.34 0.01 99 1005.5
20170529123526 65 115 3.0 6.0 0.00 0.34 0.01 99 1005.2
20170529123426 65 120 3.0 6.0 0.00 0.34 0.01 99 1005.4
20170529123327 66 120 1.0 6.0 0.00 0.34 0.01 99 1005.1
20170529123226 65 125 4.0 6.0 0.00 0.34 0.01 99 1005.3
20170529122926 65 120 3.0 6.0 0.00 0.34 0.01 99 1005.3
20170529122827 65 119 4.0 6.0 0.00 0.34 0.01 99 1005.5
20170529122726 64 121 3.0 6.0 0.00 0.34 0.01 99 1005.6
20170529122626 64 123 3.0 6.0 0.00 0.34 0.01 99 1005.3
20170529122226 65 117 3.0 6.0 0.00 0.34 0.01 99 1005.5
20170529122026 64 116 4.0 7.0 0.00 0.34 0.01 99 1005.4
20170529121926 65 115 2.0 7.0 0.00 0.34 0.01 99 1005.4
20170529121726 64 118 3.0 7.0 0.00 0.34 0.01 97 1005.4
20170529121626 64 112 2.0 7.0 0.00 0.34 0.01 99 1005.3
20170529121426 64 108 1.0 7.0 0.00 0.34 0.01 97 1005.4
20170529121326 64 105 2.0 7.0 0.00 0.34 0.01 97 1005.3
20170529121027 64 100 5.0 7.0 0.00 0.34 0.01 97 1005.3
20170529120926 64 97 3.0 5.0 0.00 0.34 0.01 97 1005.3
20170529120826 64 99 3.0 5.0 0.00 0.34 0.01 97 1005.4
20170529120627 63 102 3.0 6.0 0.00 0.34 0.01 97 1005.4
20170529120226 63 119 3.0 6.0 0.00 0.34 0.01 97 1005.5
20170529115927 63 134 3.0 6.0 0.00 0.34 0.01 97 1005.4
20170529115826 63 126 2.0 6.0 0.00 0.34 0.01 97 1005.6
20170529115726 63 121 4.0 6.0 0.00 0.34 0.01 97 1005.4
20170529115626 63 131 3.0 6.0 0.00 0.34 0.01 97 1005.2
20170529115526 63 129 2.0 8.0 0.00 0.34 0.01 97 1005.4
20170529115327 63 143 3.0 8.0 0.00 0.34 0.01 97 1005.3
20170529115226 63 146 4.0 8.0 0.00 0.34 0.01 97 1005.2
20170529115026 63 144 3.0 8.0 0.00 0.34 0.01 97 1005.3
20170529114926 63 150 4.0 8.0 0.00 0.34 0.01 97 1005.4
20170529114727 63 150 4.0 8.0 0.00 0.34 0.01 97 1005.4
20170529114626 63 145 4.0 8.0 0.00 0.34 0.01 97 1005.4
20170529114526 63 142 5.0 8.0 0.00 0.34 0.01 97 1005.4
20170529114426 63 135 4.0 7.0 0.00 0.34 0.01 97 1005.5
20170529114326 63 135 3.0 7.0 0.00 0.34 0.01 97 1005.4
20170529114226 63 130 4.0 7.0 0.00 0.34 0.01 97 1005.5
20170529114026 63 131 4.0 9.0 0.00 0.34 0.01 97 1005.5
20170529113626 63 131 2.0 9.0 0.00 0.34 0.01 97 1005.4
20170529113526 63 134 3.0 9.0 0.00 0.34 0.01 97 1005.4
20170529113326 63 140 5.0 9.0 0.00 0.34 0.01 97 1005.4
20170529113126 63 140 5.0 9.0 0.00 0.34 0.01 97 1005.4
20170529112926 63 143 3.0 7.0 0.00 0.34 0.01 97 1005.4
20170529112726 63 135 3.0 7.0 0.00 0.34 0.01 97 1005.4
20170529112426 63 121 5.0 10.0 0.00 0.34 0.01 97 1005.4
20170529112326 63 125 5.0 10.0 0.00 0.34 0.01 97 1005.4
20170529112227 63 129 3.0 10.0 0.00 0.34 0.01 97 1005.1
20170529112026 63 130 2.0 10.0 0.00 0.34 0.01 97 1005.3
20170529111926 63 133 3.0 10.0 0.00 0.34 0.01 97 1005.2
20170529111727 63 146 3.0 10.0 0.00 0.34 0.01 97 1005.3
20170529111626 62 153 5.0 10.0 0.00 0.34 0.01 98 1005.2
20170529111526 62 154 4.0 10.0 0.00 0.34 0.01 98 1005.0
20170529111426 63 155 7.0 10.0 0.00 0.34 0.01 97 1005.2
20170529111326 62 148 5.0 9.0 0.00 0.34 0.01 98 1005.0
20170529111226 63 142 5.0 9.0 0.00 0.34 0.01 97 1005.2
20170529111127 63 134 3.0 7.0 0.00 0.34 0.01 97 1005.3
20170529110926 63 132 3.0 7.0 0.00 0.34 0.01 97 1005.3
20170529110826 63 128 4.0 9.0 0.00 0.34 0.01 97 1005.0
20170529110726 63 130 3.0 9.0 0.00 0.34 0.01 97 1005.2
20170529110626 63 122 3.0 9.0 0.00 0.34 0.01 97 1005.2
20170529110426 62 129 4.0 9.0 0.00 0.34 0.01 98 1005.3
20170529110226 62 130 5.0 9.0 0.00 0.34 0.01 98 1005.0
20170529110126 62 128 3.0 9.0 0.00 0.34 0.01 98 1005.1
20170529110027 62 133 5.0 9.0 0.00 0.34 0.01 98 1005.2
20170529105926 62 131 3.0 9.0 0.00 0.34 0.01 98 1004.9
20170529105826 62 130 5.0 9.0 0.00 0.34 0.01 98 1004.8
20170529105726 62 124 4.0 7.0 0.00 0.34 0.01 98 1005.1
20170529105627 62 131 3.0 7.0 0.00 0.34 0.01 98 1004.9
20170529105526 62 132 5.0 7.0 0.00 0.34 0.01 98 1004.9
20170529105426 62 126 5.0 7.0 0.00 0.34 0.01 98 1005.0
20170529105326 62 120 4.0 7.0 0.00 0.34 0.01 98 1004.9
20170529105227 62 128 5.0 7.0 0.00 0.34 0.01 98 1004.9
20170529105026 62 138 2.0 6.0 0.00 0.34 0.01 98 1005.0
20170529104826 62 132 5.0 9.0 0.00 0.34 0.01 98 1004.7
20170529104726 62 134 3.0 9.0 0.00 0.34 0.01 98 1004.9
20170529104426 62 131 3.0 9.0 0.00 0.34 0.01 98 1004.6
20170529104326 62 136 5.0 9.0 0.00 0.34 0.01 98 1004.9
20170529104126 62 125 3.0 9.0 0.00 0.34 0.01 98 1004.6
20170529103927 62 120 3.0 9.0 0.00 0.34 0.01 98 1004.5
20170529103626 62 122 3.0 5.0 0.00 0.34 0.01 98 1004.6
20170529103425 62 119 2.0 5.0 0.00 0.34 0.01 98 1004.6
20170529103327 62 123 2.0 5.0 0.00 0.34 0.01 98 1004.4
20170529103226 62 122 1.0 5.0 0.00 0.34 0.01 98 1004.4
20170529103026 62 131 2.0 5.0 0.00 0.34 0.01 98 1004.5
20170529102826 61 129 3.0 5.0 0.00 0.34 0.01 98 1004.4
20170529102726 61 135 3.0 5.0 0.00 0.34 0.01 98 1004.4
20170529102526 61 125 3.0 5.0 0.00 0.34 0.01 98 1004.4
20170529102426 61 127 3.0 5.0 0.00 0.34 0.01 98 1004.3
20170529102327 61 114 3.0 5.0 0.00 0.34 0.01 98 1004.2
20170529102226 61 108 3.0 5.0 0.00 0.34 0.01 98 1004.2
20170529102126 61 101 2.0 5.0 0.00 0.34 0.01 98 1004.5
20170529101727 61 108 3.0 5.0 0.00 0.34 0.01 98 1004.2
20170529101526 61 119 2.0 5.0 0.00 0.34 0.01 98 1004.0
20170529101426 61 125 2.0 5.0 0.00 0.34 0.01 98 1004.1
20170529101226 61 145 3.0 5.0 0.01 0.34 0.01 98 1004.1
20170529101026 61 164 3.0 5.0 0.01 0.34 0.01 98 1004.2
20170529100926 61 168 2.0 5.0 0.01 0.34 0.01 98 1004.0
20170529100826 61 171 2.0 4.0 0.01 0.34 0.01 98 1003.9
20170529100726 61 170 2.0 4.0 0.01 0.34 0.01 98 1004.0
20170529100526 61 153 2.0 4.0 0.01 0.34 0.01 98 1004.0
20170529100426 61 148 2.0 4.0 0.01 0.34 0.01 98 1004.1
20170529100326 61 143 2.0 4.0 0.01 0.34 0.01 98 1004.1
20170529100226 61 133 2.0 4.0 0.01 0.34 0.01 98 1004.0
20170529100126 61 128 2.0 4.0 0.01 0.34 0.01 98 1004.0
20170529095926 61 114 3.0 4.0 0.01 0.34 0.01 98 1003.9
20170529095826 61 109 2.0 4.0 0.01 0.34 0.01 98 1003.6
20170529095726 61 106 1.0 4.0 0.01 0.34 0.01 98 1003.9
20170529095526 61 105 2.0 4.0 0.01 0.34 0.01 98 1003.9
20170529095425 61 105 2.0 4.0 0.01 0.34 0.01 98 1003.9
20170529095326 61 101 2.0 4.0 0.01 0.34 0.01 98 1003.8
20170529095226 61 103 3.0 4.0 0.01 0.34 0.01 98 1003.8
20170529095026 61 107 1.0 5.0 0.01 0.34 0.01 98 1003.8
20170529094826 61 111 2.0 5.0 0.01 0.34 0.01 98 1003.7
20170529094726 61 113 2.0 5.0 0.01 0.34 0.01 98 1003.7
20170529094626 61 118 2.0 5.0 0.01 0.34 0.01 98 1003.9
20170529094526 61 127 2.0 5.0 0.01 0.34 0.01 98 1003.8
20170529094426 61 127 3.0 5.0 0.01 0.34 0.01 98 1003.9
20170529094326 61 127 2.0 5.0 0.01 0.34 0.01 98 1003.8
20170529094126 61 118 3.0 5.0 0.01 0.34 0.01 98 1003.8
20170529093726 61 120 2.0 5.0 0.01 0.34 0.01 99 1003.8
20170529093626 61 123 3.0 5.0 0.01 0.34 0.01 98 1003.7
20170529093426 60 114 1.0 5.0 0.01 0.34 0.01 99 1003.6
20170529093226 61 117 2.0 5.0 0.01 0.34 0.01 99 1003.7
20170529093027 60 115 1.0 3.0 0.01 0.34 0.01 99 1003.6
20170529092926 60 115 2.0 4.0 0.01 0.34 0.01 99 1003.5
20170529092726 61 114 2.0 4.0 0.01 0.34 0.01 99 1003.5
20170529092626 61 112 2.0 4.0 0.01 0.34 0.01 99 1003.5
20170529092525 61 115 2.0 4.0 0.01 0.34 0.01 99 1003.3
20170529092426 60 117 2.0 4.0 0.01 0.34 0.01 99 1003.3
20170529092226 60 110 1.0 4.0 0.01 0.34 0.01 99 1003.3
20170529092126 60 118 1.0 4.0 0.01 0.34 0.01 99 1003.2
20170529092026 60 120 2.0 4.0 0.01 0.34 0.01 99 1003.3
20170529091925 61 128 1.0 3.0 0.01 0.34 0.01 99 1003.3
20170529091726 61 127 2.0 3.0 0.01 0.34 0.01 99 1003.2
20170529091626 60 121 1.0 3.0 0.01 0.34 0.01 99 1003.3
20170529091526 61 121 2.0 3.0 0.01 0.34 0.01 99 1003.2
20170529091426 60 124 2.0 3.0 0.00 0.33 0.00 99 1003.2